Miscellaneous Local Product
Issued by NWS North Platte, NE

Home | Current Version | Previous Version | Text Only | Print | Product List | Glossary On
Versions: 1 2 3 4 5 6 7 8 9 10 11 12 13 14 15 16 17 18 19 20 21 22 23 24 25 26 27 28 29 30 31 32 33 34 35 36 37 38 39 40 41 42 43 44 45 46 47 48 49 50
000
AXUS43 KLBF 040310
MISLBF


WESTERN AND NORTH CENTRAL NEBRASKA HOURLY WEATHER ROUNDUP
NATIONAL WEATHER SERVICE NORTH PLATTE NE
1000 PM CDT TUE MAY 03 2016

NOTE: "FAIR" INDICATES FEW OR NO CLOUDS BELOW 12,000 FEET WITH NO
SIGNIFICANT WEATHER AND/OR OBSTRUCTIONS TO VISIBILITY.

NOTE: STATIONS NOT REPORTING VARIABLES SUCH AS SKY/WEATHER OR
PRESSURE ARE PROVIDED BY RAWS AND APRS NETWORKS AND ARE NOT UNDER
NATIONAL WEATHER SERVICE QUALITY CONTROL.

...OBSERVATIONS IN AND NEAR THE EASTERN PANHANDLE OF NEBRASKA...

CITY           SKY/WX    TMP DP  RH WIND       PRES   REMARKS
PINE RIDGE     CLEAR     54  37  52 N5        30.10R
CHADRON        CLEAR     50  42  74 SW5       30.11R
ALLIANCE       CLEAR     52  40  63 N9        30.12R
SIDNEY         CLEAR     44  35  70 CALM      30.15R
CRESCENT LAKE    N/A     55  36  49 N5          N/A
$$

...OBSERVATIONS IN NORTHERN NEBRASKA AND FAR SOUTHERN SOUTH DAKOTA...

CITY           SKY/WX    TMP DP  RH WIND       PRES   REMARKS
WINNER         FAIR      58  44  60 NW5       29.98R
VALENTINE      CLEAR     57  41  55 NW9       30.02R
THEDFORD       CLEAR     55  41  58 W5        30.05S
AINSWORTH      CLEAR     56  43  61 W6        30.01S
O`NEILL        CLEAR     57  45  62 W8        29.94S
ORD            CLEAR     53  43  68 W8        29.97S
BROKEN BOW     CLEAR     55  40  56 N5        30.01R
VALENTINE NWR    N/A     57  41  55 NW3         N/A
BUTTE            N/A     60  44  56 NW6         N/A
HALSEY           N/A     59  37  44 CALM        N/A
CHAMBERS         N/A     57  40  54 W3          N/A
EWING            N/A     60  46  61 W7          N/A
$$

...OBSERVATIONS IN SOUTHWEST NEBRASKA AND FAR NORTHEAST COLORADO...

CITY           SKY/WX    TMP DP  RH WIND       PRES   REMARKS
HOLYOKE        FAIR      54  36  50 NW8       30.13R
IMPERIAL       CLEAR     58  36  43 NW5       30.09R
OGALLALA       CLEAR     49  35  58 NW3       30.10R
NORTH PLATTE   CLEAR     48  40  73 NW6       30.06R
MCCOOK         CLEAR     53  39  59 W7        30.05R
LEXINGTON      CLEAR     52  45  76 NW8       30.03R
STAPLETON        N/A     54  39  56 CALM        N/A
GOTHENBURG       N/A     64  33  32 NW6         N/A
CALLAWAY         N/A     57  42  58 N6          N/A
$$

...OBSERVATIONS IN CENTRAL LINCOLN COUNTY AREA...

CITY           SKY/WX    TMP DP  RH WIND       PRES   REMARKS
N.P. AIRPORT   CLEAR     48  40  73 NW6       30.06R
N.P. DOWNTOWN    N/A     59  37  43 CALM        N/A
N.P. SOUTHEAST   N/A     60  35  39 CALM        N/A
N.P. HILLCREST   N/A     56  35  46 N6          N/A
$$

...SOME OBSERVATIONS FROM AROUND THE REGION...

CITY           SKY/WX    TMP DP  RH WIND       PRES   REMARKS
DENVER         CLEAR     60  30  32 NW5       30.23R
LARAMIE        CLEAR     43  34  70 W7        30.29R
CHEYENNE       CLEAR     54  34  46 N5        30.25R
SCOTTSBLUFF    CLEAR     56  40  55 NE7       30.14R
RAPID CITY     CLEAR     54  40  59 N10       30.09R
BISMARCK       CLEAR     60  28  29 NE10      30.02R
PIERRE         CLEAR     57  42  57 N10       29.98R
SIOUX FALLS    CLEAR     57  32  38 N13       29.88R
OMAHA          CLEAR     63  43  48 W7        29.86F
GRAND ISLAND   CLEAR     55  44  66 W8        29.98R
KANSAS CITY    CLEAR     57  42  57 SW5       29.93F
WICHITA        PTCLDY    60  48  64 W7        30.00R
OKLAHOMA CITY  PTCLDY    56  48  74 S5        30.03R
DALLAS         CLOUDY    67  45  45 S5        30.04F
AMARILLO       CLEAR     53  36  52 N5        30.16R
DODGE CITY     CLEAR     50  42  74 N5        30.10R
HAYS           CLEAR     54  39  58 W5        30.05S
GOODLAND       CLEAR     49  37  63 NW5       30.11R
$$




USA.gov is the U.S. government's official web portal to all federal, state and local government web resources and services.